LVS137 MGI-SADF

Flight info

Callsign LVS137
Flight time N/A
Altitude 1000
Route CV2
Aircraft ECHO/L-SFG/C

Departure

Time N/A
Airport MGI

Arrival

Time 2026-04-19 19:21
Airport San Fernando Airport (SADF)
Time Latitude Longitude Altitude Speed Heading
2026-04-19 18:48 -34.18494 -58.24808 18 ft 0 kts 81°
2026-04-19 18:54 -34.18494 -58.24807 16 ft 0 kts 79°
2026-04-19 18:55 -34.18493 -58.24804 18 ft 1 kts 76°
2026-04-19 18:55 -34.18493 -58.24803 21 ft 0 kts 87°
2026-04-19 18:55 -34.18494 -58.24798 21 ft 6 kts 110°
2026-04-19 18:55 -34.18536 -58.24742 18 ft 9 kts 121°
2026-04-19 18:56 -34.18547 -58.24672 19 ft 15 kts 92°
2026-04-19 18:56 -34.18622 -58.24544 20 ft 34 kts 164°
2026-04-19 18:56 -34.18725 -58.24528 21 ft 0 kts 150°
2026-04-19 18:56 -34.18716 -58.24519 18 ft 8 kts
2026-04-19 18:57 -34.18708 -58.24521 20 ft 0 kts 343°
2026-04-19 18:57 -34.18705 -58.24522 20 ft 6 kts 341°
2026-04-19 18:57 -34.18494 -58.24596 20 ft 56 kts 345°
2026-04-19 18:58 -34.18012 -58.24764 56 ft 81 kts 344°
2026-04-19 18:58 -34.17449 -58.24943 199 ft 87 kts 343°
2026-04-19 18:58 -34.16820 -58.25179 228 ft 100 kts 342°
2026-04-19 18:58 -34.16244 -58.25612 320 ft 99 kts 307°
2026-04-19 18:59 -34.16059 -58.26374 424 ft 95 kts 263°
2026-04-19 18:59 -34.16280 -58.27112 538 ft 92 kts 245°
2026-04-19 18:59 -34.16519 -58.27830 654 ft 91 kts 248°
2026-04-19 18:59 -34.16755 -58.28538 773 ft 90 kts 248°
2026-04-19 19:00 -34.16987 -58.29239 889 ft 89 kts 249°
2026-04-19 19:00 -34.17212 -58.29917 1006 ft 87 kts 249°
2026-04-19 19:00 -34.17479 -58.30606 1023 ft 95 kts 242°
2026-04-19 19:00 -34.17787 -58.31308 1023 ft 92 kts 244°
2026-04-19 19:01 -34.18082 -58.31985 1026 ft 91 kts 243°
2026-04-19 19:01 -34.18374 -58.32657 1023 ft 90 kts 243°
2026-04-19 19:01 -34.18664 -58.33325 1021 ft 89 kts 243°
2026-04-19 19:01 -34.18963 -58.33981 1019 ft 90 kts 243°
2026-04-19 19:02 -34.19266 -58.34648 1016 ft 91 kts 242°
2026-04-19 19:02 -34.19568 -58.35315 1017 ft 91 kts 242°
2026-04-19 19:02 -34.19880 -58.35994 1016 ft 92 kts 242°
2026-04-19 19:02 -34.20189 -58.36674 1019 ft 93 kts 242°
2026-04-19 19:03 -34.20494 -58.37346 1020 ft 92 kts 242°
2026-04-19 19:03 -34.20805 -58.38025 1020 ft 93 kts 243°
2026-04-19 19:03 -34.21118 -58.38710 1021 ft 93 kts 242°
2026-04-19 19:03 -34.21431 -58.39388 1018 ft 93 kts 242°
2026-04-19 19:04 -34.21748 -58.40078 1017 ft 93 kts 242°
2026-04-19 19:04 -34.22058 -58.40756 1010 ft 92 kts 242°
2026-04-19 19:04 -34.22368 -58.41431 1003 ft 91 kts 243°
2026-04-19 19:04 -34.22677 -58.42100 1001 ft 92 kts 242°
2026-04-19 19:05 -34.22986 -58.42771 1003 ft 93 kts 242°
2026-04-19 19:05 -34.23302 -58.43452 1001 ft 92 kts 242°
2026-04-19 19:05 -34.23615 -58.44130 1001 ft 92 kts 242°
2026-04-19 19:05 -34.23932 -58.44810 1004 ft 95 kts 242°
2026-04-19 19:06 -34.24251 -58.45500 997 ft 94 kts 242°
2026-04-19 19:06 -34.24563 -58.46181 991 ft 92 kts 242°
2026-04-19 19:06 -34.24877 -58.46858 991 ft 92 kts 242°
2026-04-19 19:06 -34.25193 -58.47542 1000 ft 95 kts 242°
2026-04-19 19:07 -34.25519 -58.48242 1000 ft 97 kts 242°
2026-04-19 19:07 -34.25849 -58.48951 991 ft 95 kts 242°
2026-04-19 19:07 -34.26170 -58.49640 990 ft 93 kts 241°
2026-04-19 19:07 -34.26489 -58.50327 987 ft 93 kts 241°
2026-04-19 19:08 -34.26803 -58.51004 983 ft 92 kts 242°
2026-04-19 19:08 -34.27118 -58.51681 982 ft 92 kts 242°
2026-04-19 19:08 -34.27430 -58.52350 980 ft 92 kts 242°
2026-04-19 19:08 -34.27746 -58.53034 981 ft 94 kts 241°
2026-04-19 19:09 -34.28065 -58.53728 986 ft 94 kts 242°
2026-04-19 19:09 -34.28387 -58.54424 984 ft 94 kts 241°
2026-04-19 19:09 -34.28709 -58.55114 990 ft 95 kts 241°
2026-04-19 19:09 -34.29030 -58.55804 985 ft 95 kts 242°
2026-04-19 19:10 -34.29353 -58.56494 984 ft 93 kts 241°
2026-04-19 19:10 -34.29672 -58.57180 979 ft 93 kts 241°
2026-04-19 19:10 -34.29991 -58.57862 981 ft 93 kts 241°
2026-04-19 19:10 -34.30308 -58.58542 981 ft 95 kts 241°
2026-04-19 19:11 -34.30639 -58.59241 977 ft 94 kts 242°
2026-04-19 19:11 -34.30957 -58.59921 973 ft 93 kts 240°
2026-04-19 19:11 -34.31275 -58.60593 969 ft 91 kts 241°
2026-04-19 19:11 -34.31596 -58.61266 968 ft 93 kts 241°
2026-04-19 19:12 -34.31915 -58.61940 976 ft 92 kts 240°
2026-04-19 19:12 -34.32227 -58.62600 970 ft 91 kts 241°
2026-04-19 19:12 -34.32551 -58.63280 973 ft 92 kts 240°
2026-04-19 19:12 -34.32871 -58.63956 972 ft 92 kts 240°
2026-04-19 19:13 -34.33182 -58.64616 975 ft 92 kts 241°
2026-04-19 19:13 -34.33499 -58.65284 973 ft 91 kts 241°
2026-04-19 19:13 -34.33819 -58.65961 972 ft 93 kts 240°
2026-04-19 19:13 -34.34141 -58.66637 979 ft 93 kts 240°
2026-04-19 19:14 -34.34466 -58.67324 974 ft 94 kts 240°
2026-04-19 19:14 -34.34786 -58.68005 974 ft 93 kts 241°
2026-04-19 19:14 -34.35110 -58.68687 979 ft 94 kts 241°
2026-04-19 19:14 -34.35440 -58.69370 977 ft 94 kts 240°
2026-04-19 19:15 -34.35921 -58.69890 969 ft 94 kts 204°
2026-04-19 19:15 -34.36566 -58.69920 965 ft 94 kts 163°
2026-04-19 19:15 -34.37068 -58.69443 968 ft 94 kts 130°
2026-04-19 19:15 -34.37501 -58.68819 935 ft 98 kts 133°
2026-04-19 19:16 -34.37924 -58.68199 967 ft 95 kts 130°
2026-04-19 19:16 -34.38344 -58.67578 966 ft 97 kts 131°
2026-04-19 19:16 -34.38631 -58.67155 975 ft 98 kts 130°
2026-04-19 19:16 -34.39213 -58.66301 977 ft 98 kts 131°
2026-04-19 19:17 -34.39509 -58.65878 979 ft 99 kts 131°
2026-04-19 19:17 -34.39962 -58.65245 981 ft 99 kts 133°
2026-04-19 19:17 -34.40426 -58.64629 979 ft 100 kts 134°
2026-04-19 19:17 -34.40898 -58.64018 978 ft 99 kts 135°
2026-04-19 19:18 -34.41372 -58.63411 978 ft 99 kts 136°
2026-04-19 19:18 -34.41857 -58.62832 977 ft 99 kts 137°
2026-04-19 19:18 -34.42346 -58.62242 980 ft 99 kts 137°
2026-04-19 19:18 -34.42844 -58.61663 979 ft 99 kts 138°
2026-04-19 19:19 -34.43359 -58.61081 916 ft 105 kts 139°
2026-04-19 19:19 -34.44010 -58.60829 831 ft 96 kts 188°
2026-04-19 19:19 -34.44544 -58.61175 842 ft 81 kts 215°
2026-04-19 19:20 -34.45529 -58.62014 908 ft 89 kts 218°
2026-04-19 19:20 -34.46102 -58.62224 854 ft 97 kts 165°
2026-04-19 19:20 -34.46597 -58.61740 726 ft 86 kts 128°
2026-04-19 19:20 -34.46943 -58.61192 536 ft 81 kts 122°
2026-04-19 19:21 -34.46866 -58.60615 353 ft 80 kts 34°
2026-04-19 19:21 -34.46407 -58.60201 182 ft 80 kts 40°
2026-04-19 19:21 -34.46008 -58.59744 47 ft 74 kts 45°
2026-04-19 19:21 -34.45720 -58.59403 21 ft 31 kts 46°
2026-04-19 19:22 -34.45693 -58.59298 21 ft 9 kts 142°
2026-04-19 19:22 -34.45714 -58.59282 21 ft 8 kts 144°
2026-04-19 19:22 -34.45738 -58.59264 21 ft 0 kts 147°
2026-04-19 19:23 -34.45749 -58.59258 21 ft 6 kts 150°
2026-04-19 19:23 -34.45762 -58.59249 21 ft 0 kts 150°
2026-04-19 19:23 -34.45766 -58.59246 21 ft 0 kts 144°
2026-04-19 19:24 -34.45798 -58.59223 21 ft 18 kts 150°
2026-04-19 19:24 -34.45843 -58.59177 21 ft 1 kts 91°
2026-04-19 19:24 -34.45814 -58.59103 21 ft 15 kts 63°
2026-04-19 19:24 -34.45840 -58.59061 21 ft 5 kts 146°
2026-04-19 19:25 -34.45841 -58.59060 21 ft 0 kts 146°